星链-30046 (STARLINK-30046 )

导读 | 星芒AI

STARLINK-30046 是 SpaceX 星链计划中的一颗低轨通信卫星,属于第三代星链卫星(Starlink V1.5 或 V2 构型)。它于2023年发射,部署在约550公里高度的近地轨道,旨在为全球提供高速互联网服务。该卫星采用先进推进系统和激光通信技术,提升网络稳定性和数据传输效率。作为星链星座的一部分,STARLINK-30046 有助于扩大覆盖范围,特别是在偏远和网络基础设施薄弱的地区。

基本信息
目录编号:
55710
目录名称:
STARLINK-30046
国际标识:
2023-026R
轨道中心:
EARTH
卫星名称:
星链-30046
卫星全名:
星链-30046 (STARLINK-30046 )
卫星状态:
已陨落 最后检测时间 2024-08-08
发射日期:
2023-02-27 UTC
国别 :
美国 (US)
星等 :
--
轨道信息
数据来源 国际轨道数据
星历时间: 2024-08-08T11:54:47+0800
轨道信息已过期450天
半长轴: 6597.956km
偏心率: 0.0011221
轨道倾角: 42.990°
近地点辐角 323.911°
升交点赤经 344.030°
平近点角 175.152°
近地点: 212.417km
远地点: 227.225km
周期: 88.894分钟
每日圈数: 16.199017
详细信息
固有亮度:
5
最大亮度:
0.4
卫星平台:
Starlink v2.0 mini
覆盖范围:
全球
运营商:
太空探索技术公司
运营商所在国:
美国
制造商(研发单位):
太空探索技术公司
制造商所在国:
美国
使用方式:
暂无
卫星简介
星链(Starlink)计划是由太空探索技术公司(SpaceX)提出的一个巨型低轨卫星互联网星座项目,计划在2019年至2024年间在太空搭建由约1.2万颗卫星组成的“星链”网络,其中1584颗将部署在地球上空550千米处的近地轨道,并从2020年开始工作。该卫星仍在工作。